Tracking 28790 objects as of 19-Apr-2024
HD Live streaming from Space Station
objects crossing your sky now

DMSP 5D-2 F13 DEB

Track DMSP 5D-2 F13 DEB now!
10-day predictions


NORAD ID: 40470
Int'l Code: 1995-015BN
Perigee: 819.9 km
Apogee: 890.4 km
Inclination: 99.0 °
Period: 101.9 minutes
Semi major axis: 7226 km
RCS: Unknown
Launch date: March 24, 1995
Source: United States (US)
Launch site: AIR FORCE WESTERN TEST RANGE (AFWTR)

Note: This is SATELLITE DEBRIS
Your satellite tracking list
Your tracking list is empty




NASA's NSSDC Master Catalog

Two Line Element Set (TLE):
1 40470U 95015BN  24109.38267848  .00008114  00000-0  42958-2 0  9991
2 40470  98.9552  88.7049 0048740 177.6602 182.4807 14.13322573467887
Source of the keplerian elements: AFSPC